UAL2340 KSFO-KSEA

Flight info

Callsign UAL2340
Flight time 1h 38m
Altitude 38000
Route N0454F380 TRUKN2 DEDHD RBL LMT HAWKZ8
Aircraft A320/M-SDE3GIRWYZ/LB1

Departure

Time 2026-05-04 19:33
Airport San Francisco International Airport (KSFO)

Arrival

Time 2026-05-04 21:11
Airport Seattle–Tacoma International Airport (KSEA)
Time Latitude Longitude Altitude Speed Heading
2026-05-04 19:07 37.61646 -122.38082 22 ft 0 kts 345°
2026-05-04 19:23 37.61643 -122.38082 22 ft 3 kts 345°
2026-05-04 19:23 37.61620 -122.38068 23 ft 4 kts 323°
2026-05-04 19:23 37.61602 -122.38054 22 ft 4 kts 334°
2026-05-04 19:24 37.61577 -122.38041 23 ft 4 kts 349°
2026-05-04 19:24 37.61551 -122.38041 22 ft 4 kts 24°
2026-05-04 19:24 37.61542 -122.38047 22 ft 1 kts 28°
2026-05-04 19:27 37.61553 -122.38039 24 ft 3 kts 28°
2026-05-04 19:27 37.61580 -122.38021 22 ft 6 kts 27°
2026-05-04 19:27 37.61621 -122.37994 23 ft 6 kts 28°
2026-05-04 19:27 37.61661 -122.37965 23 ft 8 kts 29°
2026-05-04 19:28 37.61680 -122.37895 23 ft 10 kts 94°
2026-05-04 19:28 37.61668 -122.37797 22 ft 13 kts 98°
2026-05-04 19:28 37.61656 -122.37675 22 ft 15 kts 97°
2026-05-04 19:28 37.61641 -122.37530 22 ft 18 kts 97°
2026-05-04 19:29 37.61624 -122.37361 22 ft 19 kts 97°
2026-05-04 19:29 37.61611 -122.37261 22 ft 11 kts 108°
2026-05-04 19:29 37.61573 -122.37164 23 ft 14 kts 118°
2026-05-04 19:29 37.61524 -122.37045 22 ft 17 kts 117°
2026-05-04 19:30 37.61471 -122.36932 24 ft 15 kts 127°
2026-05-04 19:30 37.61392 -122.36821 22 ft 18 kts 131°
2026-05-04 19:30 37.61321 -122.36673 23 ft 21 kts 117°
2026-05-04 19:30 37.61254 -122.36513 23 ft 22 kts 118°
2026-05-04 19:31 37.61183 -122.36346 22 ft 22 kts 118°
2026-05-04 19:31 37.61107 -122.36168 23 ft 23 kts 118°
2026-05-04 19:31 37.61052 -122.36028 22 ft 14 kts 107°
2026-05-04 19:31 37.61083 -122.35915 22 ft 15 kts 37°
2026-05-04 19:32 37.61157 -122.35873 23 ft 12 kts
2026-05-04 19:32 37.61213 -122.35938 23 ft 12 kts 297°
2026-05-04 19:32 37.61274 -122.36084 23 ft 34 kts 297°
2026-05-04 19:32 37.61502 -122.36630 22 ft 104 kts 298°
2026-05-04 19:33 37.61931 -122.37647 25 ft 156 kts 298°
2026-05-04 19:33 37.62468 -122.38916 541 ft 160 kts 296°
2026-05-04 19:33 37.63159 -122.40005 1199 ft 169 kts 329°
2026-05-04 19:33 37.64320 -122.40115 1882 ft 175 kts 18°
2026-05-04 19:34 37.65242 -122.39137 2511 ft 178 kts 62°
2026-05-04 19:34 37.65767 -122.37728 3193 ft 177 kts 65°
2026-05-04 19:34 37.66298 -122.36259 3635 ft 194 kts 65°
2026-05-04 19:34 37.66895 -122.34612 3953 ft 219 kts 65°
2026-05-04 19:35 37.67569 -122.32769 4399 ft 244 kts 65°
2026-05-04 19:35 37.68316 -122.30739 4938 ft 265 kts 65°
2026-05-04 19:35 37.69098 -122.28622 5763 ft 273 kts 65°
2026-05-04 19:35 37.69909 -122.26429 6667 ft 279 kts 65°
2026-05-04 19:36 37.70800 -122.24227 7578 ft 284 kts 56°
2026-05-04 19:36 37.72153 -122.22397 8478 ft 288 kts 36°
2026-05-04 19:36 37.73923 -122.21213 9348 ft 291 kts 16°
2026-05-04 19:36 37.75921 -122.20751 10227 ft 294 kts
2026-05-04 19:37 37.78031 -122.20421 10642 ft 317 kts
2026-05-04 19:37 37.80301 -122.20060 10984 ft 339 kts
2026-05-04 19:37 37.82645 -122.19682 11648 ft 348 kts
2026-05-04 19:37 37.85070 -122.19288 12452 ft 354 kts
2026-05-04 19:38 37.87520 -122.18884 13342 ft 356 kts
2026-05-04 19:38 37.89976 -122.18479 14305 ft 355 kts
2026-05-04 19:38 37.92431 -122.18072 15183 ft 357 kts
2026-05-04 19:38 37.94905 -122.17661 15961 ft 360 kts
2026-05-04 19:39 37.97401 -122.17248 16702 ft 363 kts
2026-05-04 19:39 37.99922 -122.16834 17427 ft 367 kts
2026-05-04 19:39 38.02434 -122.16422 18134 ft 371 kts
2026-05-04 19:39 38.05001 -122.15998 18863 ft 374 kts
2026-05-04 19:40 38.07591 -122.15575 19625 ft 376 kts
2026-05-04 19:40 38.10196 -122.15152 20413 ft 379 kts 10°
2026-05-04 19:40 38.12816 -122.14724 21194 ft 381 kts 10°
2026-05-04 19:40 38.15450 -122.14291 21920 ft 383 kts 11°
2026-05-04 19:41 38.18098 -122.13854 22631 ft 385 kts 11°
2026-05-04 19:41 38.20760 -122.13413 23327 ft 387 kts 11°
2026-05-04 19:41 38.23433 -122.12966 24016 ft 388 kts 12°
2026-05-04 19:41 38.26082 -122.12522 24667 ft 391 kts 11°
2026-05-04 19:42 38.28793 -122.12066 25236 ft 395 kts 11°
2026-05-04 19:42 38.31535 -122.11606 25755 ft 400 kts 11°
2026-05-04 19:42 38.34337 -122.11340 26266 ft 409 kts
2026-05-04 19:42 38.37205 -122.11521 26765 ft 415 kts
2026-05-04 19:43 38.40102 -122.11727 27251 ft 419 kts
2026-05-04 19:43 38.43025 -122.11931 27721 ft 423 kts
2026-05-04 19:43 38.44978 -122.12067 28036 ft 426 kts
2026-05-04 19:43 38.48915 -122.12336 28665 ft 430 kts
2026-05-04 19:44 38.51919 -122.12540 29075 ft 434 kts
2026-05-04 19:44 38.54948 -122.12744 29470 ft 438 kts
2026-05-04 19:44 38.58002 -122.12951 29861 ft 441 kts
2026-05-04 19:44 38.61078 -122.13164 30205 ft 444 kts
2026-05-04 19:45 38.64172 -122.13381 30581 ft 447 kts 360°
2026-05-04 19:45 38.66235 -122.13525 30811 ft 449 kts 360°
2026-05-04 19:45 38.69358 -122.13742 31238 ft 450 kts 360°
2026-05-04 19:45 38.73499 -122.14030 31844 ft 450 kts 359°
2026-05-04 19:46 38.76624 -122.14247 32273 ft 450 kts 359°
2026-05-04 19:46 38.79757 -122.14466 32691 ft 451 kts 359°
2026-05-04 19:46 38.82893 -122.14681 33100 ft 451 kts 359°
2026-05-04 19:46 38.84970 -122.14822 33382 ft 452 kts 359°
2026-05-04 19:47 38.88109 -122.15037 33831 ft 451 kts 359°
2026-05-04 19:47 38.91244 -122.15256 34270 ft 451 kts 359°
2026-05-04 19:47 38.94380 -122.15477 34707 ft 451 kts 358°
2026-05-04 19:47 38.98531 -122.15770 35269 ft 452 kts 358°
2026-05-04 19:48 39.01672 -122.15988 35700 ft 452 kts 358°
2026-05-04 19:48 39.03749 -122.16130 35972 ft 452 kts 358°
2026-05-04 19:48 39.06888 -122.16342 36353 ft 452 kts 358°
2026-05-04 19:48 39.10030 -122.16557 36706 ft 453 kts 358°
2026-05-04 19:49 39.13173 -122.16775 37075 ft 452 kts 358°
2026-05-04 19:49 39.16310 -122.16995 37464 ft 451 kts 358°
2026-05-04 19:49 39.19441 -122.17218 37852 ft 449 kts 357°
2026-05-04 19:49 39.23574 -122.17510 38056 ft 449 kts 357°
2026-05-04 19:50 39.25685 -122.17659 38074 ft 450 kts 357°
2026-05-04 19:50 39.31889 -122.18100 38071 ft 449 kts 358°
2026-05-04 19:51 39.38127 -122.18535 38070 ft 449 kts 358°
2026-05-04 19:51 39.44351 -122.18967 38072 ft 448 kts 358°
2026-05-04 19:52 39.50568 -122.19400 38073 ft 447 kts 358°
2026-05-04 19:52 39.56743 -122.19833 38082 ft 447 kts 358°
2026-05-04 19:53 39.62956 -122.20282 38079 ft 447 kts 358°
2026-05-04 19:53 39.69162 -122.20726 38076 ft 446 kts 358°
2026-05-04 19:54 39.75354 -122.21158 38074 ft 444 kts 358°
2026-05-04 19:54 39.81482 -122.21593 38071 ft 444 kts 358°
2026-05-04 19:55 39.87654 -122.22035 38070 ft 444 kts 358°
2026-05-04 19:55 39.93830 -122.22476 38060 ft 444 kts 358°
2026-05-04 19:56 40.00006 -122.22912 38057 ft 445 kts 358°
2026-05-04 19:56 40.06137 -122.23355 38054 ft 443 kts 358°
2026-05-04 19:57 40.12262 -122.23080 38048 ft 439 kts 11°
2026-05-04 19:57 40.18278 -122.21624 38053 ft 440 kts 12°
2026-05-04 19:58 40.24292 -122.20169 38048 ft 439 kts 12°
2026-05-04 19:58 40.30256 -122.18735 38034 ft 439 kts 12°
2026-05-04 19:59 40.36259 -122.17289 38025 ft 437 kts 12°
2026-05-04 19:59 40.42233 -122.15847 38015 ft 436 kts 12°
2026-05-04 20:00 40.48209 -122.14391 38016 ft 438 kts 12°
2026-05-04 20:00 40.54160 -122.12944 38025 ft 438 kts 12°
2026-05-04 20:01 40.60145 -122.11490 38032 ft 437 kts 12°
2026-05-04 20:01 40.66124 -122.10028 38034 ft 436 kts 12°
2026-05-04 20:02 40.72085 -122.08572 38038 ft 435 kts 12°
2026-05-04 20:02 40.77994 -122.07125 38039 ft 435 kts 12°
2026-05-04 20:03 40.83930 -122.05666 38036 ft 433 kts 12°
2026-05-04 20:03 40.89847 -122.04215 38035 ft 432 kts 13°
2026-05-04 20:04 40.95746 -122.02774 38033 ft 430 kts 13°
2026-05-04 20:04 41.01624 -122.01323 38035 ft 429 kts 13°
2026-05-04 20:05 41.07448 -121.99881 38035 ft 428 kts 13°
2026-05-04 20:05 41.13299 -121.98438 38028 ft 428 kts 13°
2026-05-04 20:06 41.19149 -121.96985 38027 ft 428 kts 13°
2026-05-04 20:06 41.25003 -121.95532 38028 ft 428 kts 13°
2026-05-04 20:07 41.30798 -121.94094 38029 ft 426 kts 13°
2026-05-04 20:07 41.36621 -121.92642 38027 ft 425 kts 13°
2026-05-04 20:08 41.42427 -121.91185 38021 ft 424 kts 13°
2026-05-04 20:08 41.48215 -121.89728 38020 ft 422 kts 13°
2026-05-04 20:09 41.53950 -121.88286 38012 ft 422 kts 13°
2026-05-04 20:09 41.59707 -121.86851 38007 ft 420 kts 13°
2026-05-04 20:10 41.65450 -121.85415 38001 ft 419 kts 13°
2026-05-04 20:10 41.71175 -121.83971 37994 ft 418 kts 13°
2026-05-04 20:11 41.76850 -121.82538 37990 ft 417 kts 14°
2026-05-04 20:11 41.82549 -121.81095 37984 ft 416 kts 14°
2026-05-04 20:12 41.88242 -121.79651 37980 ft 416 kts 14°
2026-05-04 20:12 41.93930 -121.78212 37977 ft 416 kts 14°
2026-05-04 20:13 41.99570 -121.76779 37977 ft 415 kts 14°
2026-05-04 20:13 42.05246 -121.75331 37978 ft 415 kts 14°
2026-05-04 20:14 42.10917 -121.73878 37978 ft 415 kts 14°
2026-05-04 20:14 42.16631 -121.73150 37977 ft 420 kts 359°
2026-05-04 20:15 42.22441 -121.74364 37969 ft 423 kts 354°
2026-05-04 20:15 42.28247 -121.75688 37974 ft 424 kts 354°
2026-05-04 20:16 42.34058 -121.77003 37974 ft 423 kts 354°
2026-05-04 20:16 42.39829 -121.78316 37978 ft 423 kts 355°
2026-05-04 20:17 42.45628 -121.79642 37979 ft 423 kts 355°
2026-05-04 20:17 42.51427 -121.80974 37980 ft 422 kts 355°
2026-05-04 20:18 42.57220 -121.82306 37981 ft 422 kts 355°
2026-05-04 20:18 42.62969 -121.83618 37983 ft 422 kts 355°
2026-05-04 20:19 42.68749 -121.84939 37983 ft 421 kts 355°
2026-05-04 20:19 42.74524 -121.86266 37987 ft 420 kts 355°
2026-05-04 20:20 42.80285 -121.87600 37992 ft 419 kts 355°
2026-05-04 20:20 42.85992 -121.88923 37994 ft 418 kts 355°
2026-05-04 20:21 42.91725 -121.90249 37997 ft 417 kts 355°
2026-05-04 20:21 43.00306 -121.92244 38004 ft 416 kts 355°
2026-05-04 20:22 43.05974 -121.93560 38007 ft 415 kts 355°
2026-05-04 20:22 43.11666 -121.94888 38007 ft 414 kts 356°
2026-05-04 20:23 43.17340 -121.96210 38014 ft 413 kts 356°
2026-05-04 20:23 43.22998 -121.97533 38016 ft 412 kts 356°
2026-05-04 20:24 43.28637 -121.98862 38018 ft 411 kts 356°
2026-05-04 20:24 43.34223 -122.00173 38024 ft 409 kts 356°
2026-05-04 20:25 43.39824 -122.01485 38029 ft 408 kts 356°
2026-05-04 20:25 43.45409 -122.02809 38029 ft 406 kts 356°
2026-05-04 20:26 43.50969 -122.04132 38033 ft 405 kts 356°
2026-05-04 20:26 43.56483 -122.05438 38040 ft 404 kts 356°
2026-05-04 20:27 43.62027 -122.06749 38046 ft 403 kts 356°
2026-05-04 20:27 43.67550 -122.08057 38033 ft 401 kts 357°
2026-05-04 20:28 43.73047 -122.09363 38030 ft 401 kts 356°
2026-05-04 20:28 43.78505 -122.10665 38029 ft 401 kts 357°
2026-05-04 20:29 43.84008 -122.11973 38033 ft 401 kts 357°
2026-05-04 20:29 43.89507 -122.13295 38033 ft 401 kts 356°
2026-05-04 20:30 43.95004 -122.14621 38030 ft 401 kts 357°
2026-05-04 20:30 44.00462 -122.15927 38028 ft 401 kts 357°
2026-05-04 20:31 44.05950 -122.17250 38023 ft 400 kts 356°
2026-05-04 20:31 44.11433 -122.18579 38023 ft 400 kts 357°
2026-05-04 20:32 44.16921 -122.19895 38021 ft 400 kts 357°
2026-05-04 20:32 44.22364 -122.21216 38014 ft 399 kts 356°
2026-05-04 20:33 44.27838 -122.22547 38012 ft 399 kts 356°
2026-05-04 20:33 44.33309 -122.23865 38016 ft 399 kts 356°
2026-05-04 20:34 44.38781 -122.25196 38019 ft 399 kts 356°
2026-05-04 20:34 44.44217 -122.26521 38017 ft 399 kts 356°
2026-05-04 20:35 44.49688 -122.27868 38017 ft 399 kts 356°
2026-05-04 20:35 44.55158 -122.29210 38026 ft 399 kts 356°
2026-05-04 20:36 44.60621 -122.30544 38023 ft 398 kts 356°
2026-05-04 20:36 44.66043 -122.31882 38024 ft 398 kts 356°
2026-05-04 20:37 44.71497 -122.33221 38022 ft 398 kts 356°
2026-05-04 20:37 44.76953 -122.34565 38018 ft 398 kts 356°
2026-05-04 20:38 44.82367 -122.35903 38018 ft 397 kts 356°
2026-05-04 20:38 44.87801 -122.37247 38018 ft 396 kts 356°
2026-05-04 20:39 44.93224 -122.38596 38023 ft 395 kts 355°
2026-05-04 20:39 44.98633 -122.39942 38017 ft 394 kts 355°
2026-05-04 20:40 45.03998 -122.41283 38017 ft 394 kts 355°
2026-05-04 20:40 45.09393 -122.42630 38021 ft 393 kts 355°
2026-05-04 20:41 45.14779 -122.43973 38026 ft 393 kts 355°
2026-05-04 20:41 45.20163 -122.45317 38029 ft 393 kts 355°
2026-05-04 20:42 45.25501 -122.46659 38033 ft 392 kts 355°
2026-05-04 20:42 45.30878 -122.48009 38036 ft 392 kts 355°
2026-05-04 20:43 45.36245 -122.49368 38033 ft 392 kts 355°
2026-05-04 20:43 45.41607 -122.50719 38031 ft 391 kts 355°
2026-05-04 20:44 45.46923 -122.52066 38029 ft 391 kts 355°
2026-05-04 20:44 45.52272 -122.53422 38029 ft 390 kts 355°
2026-05-04 20:45 45.57606 -122.54778 38027 ft 389 kts 355°
2026-05-04 20:45 45.62938 -122.56133 38027 ft 389 kts 354°
2026-05-04 20:46 45.68226 -122.57488 38025 ft 388 kts 354°
2026-05-04 20:46 45.73545 -122.58845 38023 ft 388 kts 355°
2026-05-04 20:47 45.78870 -122.60181 37814 ft 388 kts 355°
2026-05-04 20:47 45.81529 -122.60834 37562 ft 387 kts 355°
2026-05-04 20:47 45.84185 -122.61025 37311 ft 381 kts
2026-05-04 20:48 45.86810 -122.60801 37065 ft 383 kts
2026-05-04 20:48 45.89473 -122.60565 36814 ft 384 kts
2026-05-04 20:48 45.92141 -122.60324 36566 ft 385 kts
2026-05-04 20:48 45.94814 -122.60081 36327 ft 385 kts
2026-05-04 20:49 45.97498 -122.59837 36068 ft 388 kts
2026-05-04 20:49 46.00196 -122.59592 35722 ft 390 kts
2026-05-04 20:49 46.02910 -122.59346 35044 ft 392 kts
2026-05-04 20:49 46.05641 -122.59095 34330 ft 395 kts
2026-05-04 20:50 46.08351 -122.58846 33576 ft 397 kts
2026-05-04 20:50 46.11123 -122.58595 32771 ft 401 kts
2026-05-04 20:50 46.13924 -122.58345 32067 ft 403 kts
2026-05-04 20:50 46.16702 -122.58099 31591 ft 398 kts
2026-05-04 20:51 46.19460 -122.57848 31060 ft 395 kts
2026-05-04 20:51 46.22193 -122.57593 30535 ft 392 kts
2026-05-04 20:51 46.24907 -122.57340 30009 ft 390 kts
2026-05-04 20:51 46.27569 -122.57097 29488 ft 387 kts
2026-05-04 20:52 46.30248 -122.56858 28972 ft 385 kts
2026-05-04 20:52 46.32914 -122.56621 28440 ft 383 kts
2026-05-04 20:52 46.35565 -122.56381 27927 ft 381 kts
2026-05-04 20:52 46.38202 -122.56139 27407 ft 379 kts
2026-05-04 20:53 46.40827 -122.55896 26899 ft 377 kts
2026-05-04 20:53 46.43442 -122.55655 26379 ft 376 kts
2026-05-04 20:53 46.46045 -122.55410 25901 ft 374 kts
2026-05-04 20:53 46.48602 -122.55166 25400 ft 373 kts
2026-05-04 20:54 46.51190 -122.54925 24923 ft 372 kts
2026-05-04 20:54 46.53767 -122.54689 24443 ft 371 kts
2026-05-04 20:54 46.56341 -122.54454 23989 ft 370 kts
2026-05-04 20:54 46.58900 -122.54219 23530 ft 368 kts
2026-05-04 20:55 46.61443 -122.53982 23094 ft 365 kts
2026-05-04 20:55 46.63965 -122.53749 22665 ft 362 kts
2026-05-04 20:55 46.66437 -122.53518 22216 ft 359 kts
2026-05-04 20:55 46.68922 -122.53287 21763 ft 357 kts
2026-05-04 20:56 46.71389 -122.53059 21318 ft 353 kts
2026-05-04 20:56 46.73833 -122.52836 20859 ft 351 kts
2026-05-04 20:56 46.76258 -122.52614 20406 ft 347 kts
2026-05-04 20:56 46.78662 -122.52391 19934 ft 345 kts
2026-05-04 20:57 46.81050 -122.52170 19464 ft 343 kts
2026-05-04 20:57 46.83392 -122.51952 18990 ft 341 kts
2026-05-04 20:57 46.85754 -122.51730 18513 ft 339 kts
2026-05-04 20:57 46.88101 -122.51509 18023 ft 337 kts
2026-05-04 20:58 46.90438 -122.51289 17574 ft 335 kts
2026-05-04 20:58 46.92759 -122.51071 17116 ft 333 kts
2026-05-04 20:58 46.95067 -122.50855 16650 ft 332 kts
2026-05-04 20:58 46.97367 -122.50636 16156 ft 331 kts
2026-05-04 20:59 46.99630 -122.50424 15679 ft 330 kts
2026-05-04 20:59 47.01915 -122.50211 15203 ft 328 kts
2026-05-04 20:59 47.04191 -122.49997 14714 ft 327 kts
2026-05-04 20:59 47.06458 -122.49786 14233 ft 326 kts
2026-05-04 21:00 47.08717 -122.49576 13752 ft 325 kts
2026-05-04 21:00 47.10966 -122.49366 13280 ft 323 kts
2026-05-04 21:00 47.13203 -122.49156 12814 ft 322 kts
2026-05-04 21:00 47.15434 -122.48943 12330 ft 320 kts
2026-05-04 21:01 47.17625 -122.48736 11861 ft 319 kts
2026-05-04 21:01 47.19840 -122.48527 11392 ft 318 kts
2026-05-04 21:01 47.22041 -122.48315 10951 ft 317 kts
2026-05-04 21:01 47.24240 -122.48101 10466 ft 317 kts
2026-05-04 21:02 47.26414 -122.47894 10278 ft 307 kts
2026-05-04 21:02 47.28512 -122.47698 10142 ft 297 kts
2026-05-04 21:02 47.30554 -122.47505 9913 ft 291 kts
2026-05-04 21:02 47.32565 -122.47314 9770 ft 289 kts
2026-05-04 21:03 47.34597 -122.47119 9250 ft 295 kts
2026-05-04 21:03 47.36605 -122.46926 8942 ft 292 kts
2026-05-04 21:03 47.38632 -122.46733 8547 ft 292 kts
2026-05-04 21:03 47.40638 -122.46544 7989 ft 288 kts
2026-05-04 21:04 47.42632 -122.46358 7333 ft 286 kts
2026-05-04 21:04 47.44612 -122.46174 6665 ft 285 kts
2026-05-04 21:04 47.46554 -122.45990 6332 ft 272 kts
2026-05-04 21:04 47.48375 -122.45810 6181 ft 253 kts
2026-05-04 21:05 47.50068 -122.45641 6065 ft 234 kts
2026-05-04 21:05 47.51614 -122.45499 5952 ft 221 kts
2026-05-04 21:05 47.53151 -122.45454 5660 ft 220 kts 359°
2026-05-04 21:05 47.54677 -122.45457 5375 ft 219 kts 359°
2026-05-04 21:06 47.56202 -122.45470 5056 ft 219 kts 359°
2026-05-04 21:06 47.57699 -122.45183 4776 ft 215 kts 17°
2026-05-04 21:06 47.59019 -122.44233 4527 ft 208 kts 35°
2026-05-04 21:06 47.60028 -122.42783 4302 ft 200 kts 52°
2026-05-04 21:07 47.60683 -122.41017 3991 ft 199 kts 69°
2026-05-04 21:07 47.60964 -122.39020 3728 ft 198 kts 87°
2026-05-04 21:07 47.60842 -122.37007 3475 ft 197 kts 104°
2026-05-04 21:07 47.60335 -122.35129 3225 ft 196 kts 121°
2026-05-04 21:08 47.59484 -122.33559 2977 ft 196 kts 137°
2026-05-04 21:08 47.58368 -122.32416 2719 ft 195 kts 155°
2026-05-04 21:08 47.57095 -122.31800 2462 ft 188 kts 172°
2026-05-04 21:08 47.55846 -122.31705 2234 ft 175 kts 182°
2026-05-04 21:09 47.54676 -122.31717 2047 ft 163 kts 182°
2026-05-04 21:09 47.53607 -122.31723 1827 ft 147 kts 182°
2026-05-04 21:09 47.52612 -122.31732 1639 ft 140 kts 182°
2026-05-04 21:09 47.51652 -122.31741 1454 ft 137 kts 181°
2026-05-04 21:10 47.50709 -122.31750 1267 ft 135 kts 182°
2026-05-04 21:10 47.49776 -122.31773 1096 ft 134 kts 182°
2026-05-04 21:10 47.48850 -122.31788 931 ft 132 kts 180°
2026-05-04 21:10 47.47943 -122.31775 764 ft 132 kts 180°
2026-05-04 21:11 47.47029 -122.31786 594 ft 131 kts 179°
2026-05-04 21:11 47.46117 -122.31791 424 ft 129 kts 180°
2026-05-04 21:11 47.45358 -122.31796 397 ft 85 kts 180°
2026-05-04 21:11 47.44931 -122.31798 391 ft 43 kts 180°
2026-05-04 21:12 47.44691 -122.31782 385 ft 31 kts 169°
2026-05-04 21:12 47.44496 -122.31668 376 ft 31 kts 150°
2026-05-04 21:12 47.44325 -122.31523 376 ft 27 kts 147°
2026-05-04 21:12 47.44226 -122.31304 381 ft 27 kts 108°
2026-05-04 21:13 47.44131 -122.31074 383 ft 27 kts 140°
2026-05-04 21:13 47.43975 -122.30941 379 ft 23 kts 151°
2026-05-04 21:13 47.43902 -122.30765 380 ft 20 kts 93°
2026-05-04 21:13 47.43958 -122.30639 383 ft 16 kts
2026-05-04 21:14 47.44070 -122.30637 385 ft 16 kts
2026-05-04 21:14 47.44153 -122.30604 388 ft 12 kts 50°
2026-05-04 21:14 47.44163 -122.30490 389 ft 6 kts 90°
2026-05-04 21:14 47.44163 -122.30451 389 ft 0 kts 90°